Wind_Speed
6 7 7 7 7 7 8 10 11 12 13 14 15 16 18 19 20 20 20 21 22 22 22 23 23 23 24 24 24 25 25 25 26 26 26 26 26 27 27 27 28 28 29
6 6 6 6 7 8 8 9 10 11 13 14 15 16 18 19 20 20 20 21 22 23 23 24 25 25 25 25 24 24 25 26 26 27 28 29 29 29 29 30 30 31 31
7 7 6 7 8 9 9 10 10 10 12 13 15 16 17 19 20 20 21 22 22 23 25 25 25 25 24 25 25 26 26 26 26 27 28 30 30 30 30 31 32 32 33
7 7 6 7 7 8 10 10 11 12 13 13 14 16 17 19 20 22 22 23 23 24 24 24 24 24 25 25 26 27 27 27 27 28 28 29 31 32 32 33 34 34 36
8 8 8 7 8 9 10 10 11 12 13 14 15 16 17 18 20 21 22 22 23 23 24 25 24 24 25 26 27 28 27 27 28 28 29 31 32 33 34 35 36 37 38
9 9 9 9 10 11 11 11 12 12 13 14 15 15 17 18 19 21 21 22 22 23 24 24 24 25 26 27 27 27 27 27 28 29 30 31 32 33 34 36 37 38 39
11 11 11 12 12 12 13 13 13 14 14 14 15 16 16 17 19 20 20 21 22 23 23 24 24 25 26 26 27 28 28 28 30 31 32 32 33 34 35 37 38 40 40
12 13 13 14 14 15 15 15 16 16 16 16 16 16 17 18 18 19 21 22 22 23 23 24 25 26 27 28 28 29 30 31 32 33 33 33 34 35 37 38 40 41 42
14 15 15 15 15 16 17 17 18 18 18 18 18 18 18 19 18 18 20 21 22 23 24 25 26 26 27 28 29 30 31 33 33 33 33 34 35 37 38 39 41 42 44
16 16 17 17 17 18 19 19 19 19 20 20 20 20 20 20 20 20 21 21 23 23 24 25 25 26 27 28 29 30 32 33 33 33 34 35 36 38 39 41 43 44 45
18 19 19 19 19 20 20 21 21 21 21 21 21 21 21 22 22 22 22 23 23 24 25 25 26 27 28 29 30 31 32 32 33 34 34 35 37 38 39 41 42 44 45
20 21 21 22 22 22 22 22 22 23 22 23 23 23 23 23 23 23 23 24 24 25 25 26 27 28 28 29 30 32 32 32 33 33 34 36 37 38 39 41 41 42 43
22 23 23 23 23 23 23 23 23 23 23 23 23 23 23 24 24 24 25 25 26 27 28 28 28 28 29 30 31 32 33 33 34 35 36 37 37 38 38 39 40 41 41
24 24 24 24 24 24 24 24 24 24 23 23 24 24 24 24 24 25 25 26 27 27 28 29 29 29 30 31 32 33 34 35 35 36 36 36 37 37 38 39 39 40 41
25 26 26 25 25 25 25 25 25 24 25 25 25 25 25 25 25 25 26 26 26 27 28 29 30 30 31 32 32 32 34 35 36 36 35 36 37 38 38 38 39 39 40
27 27 26 26 26 26 27 26 26 26 26 26 26 26 26 26 25 25 26 26 27 28 29 30 31 31 31 32 32 33 34 34 35 35 35 36 37 37 37 37 38 38 38
29 28 28 27 27 27 27 27 27 26 27 27 27 26 26 26 26 26 26 27 28 29 30 30 30 30 32 32 32 33 33 34 34 35 35 35 36 36 36 37 37 37 36
29 29 29 28 28 27 27 27 27 27 26 26 26 26 26 26 26 27 28 29 29 30 30 30 30 31 32 32 32 32 33 34 34 34 34 34 35 35 35 35 35 34 33
29 29 29 28 27 27 27 27 27 26 26 26 25 25 26 26 27 28 28 29 29 29 29 30 30 30 31 31 31 31 32 32 32 32 33 33 33 33 33 33 32 32 31
29 28 28 27 28 28 28 27 27 26 26 25 25 25 26 26 27 27 28 29 29 29 30 30 30 30 30 30 30 30 31 31 31 31 31 32 32 32 31 31 30 29 29
28 28 27 28 28 28 27 27 26 26 25 25 25 25 26 26 26 27 28 28 29 29 29 29 29 29 29 29 29 29 30 30 30 30 30 31 30 30 29 28 27 26 27
27 27 27 28 27 26 26 26 26 25 25 25 24 25 25 26 26 27 28 28 28 28 28 28 28 27 27 28 28 29 28 28 28 28 28 28 28 27 26 25 25 25 26
26 26 26 26 26 26 26 26 26 25 25 25 25 25 26 27 28 28 28 28 27 27 27 26 26 26 27 27 27 27 26 26 27 27 27 27 26 25 25 25 24 25 25
26 26 25 25 25 26 25 25 25 25 25 25 25 25 26 26 27 27 27 26 26 26 25 25 26 26 26 26 26 26 25 26 26 26 26 25 25 24 24 24 24 24 24
24 25 24 24 25 25 24 24 25 25 25 25 25 25 25 25 25 26 26 25 25 25 25 25 26 26 26 26 25 25 25 25 25 25 25 25 24 23 23 23 23 23 24
23 23 23 23 23 23 23 24 24 23 23 24 24 24 24 25 25 26 26 25 25 25 25 26 26 26 26 26 25 25 24 25 25 25 25 24 23 23 23 23 23 23 23
Wind_Direction
301 298 288 280 281 278 268 262 258 256 257 256 252 250 250 253 255 256 258 259 261 263 264 266 266 267 268 268 267 267 268 269 268 269 270 271 273 275 276 277 277 279 279
304 299 290 281 277 278 279 273 266 263 262 262 260 258 255 256 259 260 262 263 264 265 266 267 267 268 269 268 267 268 270 270 268 268 269 271 273 274 274 275 278 279 279
309 303 291 282 276 278 282 281 277 275 273 271 265 265 262 261 261 261 263 267 268 268 269 268 268 269 269 268 268 268 269 270 271 271 271 273 274 274 275 277 278 279 280
310 305 293 286 286 288 287 283 280 280 280 276 272 271 268 266 266 265 265 268 271 272 272 272 270 270 271 270 269 269 269 271 272 272 273 275 275 275 277 277 278 281 282
310 306 302 297 295 293 294 291 287 285 283 278 277 277 274 271 270 270 269 269 271 271 271 272 271 270 271 274 272 271 271 273 274 275 274 276 276 277 276 278 280 282 284
303 305 302 298 298 298 297 297 294 290 288 285 283 283 282 276 275 273 271 270 272 273 273 271 272 273 273 274 273 272 273 275 276 279 279 279 278 277 277 279 282 282 285
298 299 298 299 298 298 297 297 296 294 292 291 288 286 285 282 276 273 274 275 274 275 276 276 276 278 275 275 275 274 274 275 278 281 280 279 279 280 281 283 283 284 285
297 297 296 295 295 295 295 294 293 292 291 291 289 287 285 285 283 277 277 277 277 277 278 279 280 281 281 280 279 277 277 279 280 281 282 282 283 284 284 285 286 286 288
294 295 294 293 293 292 292 291 290 289 289 288 288 289 288 288 287 284 282 280 279 279 279 280 281 282 283 281 282 281 281 283 283 283 284 285 286 287 287 288 288 289 290
293 293 293 292 291 291 291 290 289 289 289 289 289 289 288 288 287 287 287 284 283 283 283 283 284 285 287 285 283 283 283 283 283 283 284 284 287 289 290 290 290 291 292
293 292 291 291 290 291 291 290 288 288 288 288 288 288 287 286 286 286 285 284 285 284 283 284 286 287 288 287 287 286 286 286 286 287 287 288 291 292 293 293 293 293 293
291 291 290 290 290 290 290 289 288 286 286 286 286 287 288 288 288 286 285 285 286 286 285 286 288 289 288 289 290 288 289 291 291 291 292 293 294 295 297 298 298 297 296
291 291 290 289 289 289 288 288 287 286 285 285 285 287 288 287 287 286 285 285 285 287 287 289 291 291 291 291 292 291 292 292 293 293 293 295 296 297 298 299 300 300 300
290 290 290 289 288 288 286 285 285 284 284 284 284 287 287 286 285 285 285 285 287 288 288 289 292 292 293 293 292 292 293 294 296 297 297 298 298 299 299 300 301 302 303
288 289 289 289 289 286 284 283 282 281 282 282 283 284 285 284 284 284 286 287 288 288 290 291 292 292 293 294 295 295 295 296 299 299 299 300 301 301 302 304 304 305 306
288 289 290 289 288 287 284 283 282 282 282 282 282 282 282 282 284 284 285 288 290 291 291 292 291 291 292 295 296 296 297 298 299 300 300 301 302 303 304 305 306 307 308
286 287 287 286 285 285 283 282 281 282 283 282 281 280 280 282 283 285 286 287 289 291 291 291 291 291 293 295 296 296 297 298 299 301 301 303 305 306 306 307 308 310 311
283 283 283 283 283 282 281 281 281 281 282 282 281 279 279 280 283 285 287 288 289 289 289 289 290 291 294 295 297 297 298 299 301 303 304 305 306 306 307 308 310 312 313
279 280 280 280 280 281 281 280 280 280 280 280 281 280 279 282 284 286 287 288 289 290 290 289 290 293 295 297 298 299 299 301 303 305 306 307 308 309 310 310 311 312 313
278 278 278 277 279 280 280 280 280 280 280 280 280 281 281 284 285 286 288 289 289 289 290 291 292 295 296 297 298 298 300 302 304 306 307 309 310 311 311 312 313 314 315
274 274 275 276 278 279 279 279 278 279 279 278 280 282 283 283 284 287 288 288 289 290 291 293 294 295 297 298 299 300 301 302 305 307 308 310 311 312 313 314 316 317 318
274 274 275 276 276 277 278 278 278 278 277 277 279 282 284 284 285 286 287 288 289 290 292 293 294 295 297 298 299 301 303 305 307 309 310 310 311 313 314 316 318 319 319
275 275 276 275 274 274 275 276 277 278 278 278 278 280 282 283 286 288 289 290 290 291 293 294 295 296 298 299 300 302 304 307 308 309 310 310 311 313 315 317 317 318 319
274 273 273 273 273 274 275 276 276 277 278 278 279 281 282 285 286 289 291 291 292 293 294 295 296 298 299 300 301 302 304 306 308 309 310 312 312 313 314 315 316 316 318
271 271 271 271 272 274 275 276 277 276 277 279 281 282 284 287 289 290 292 293 293 294 296 297 299 300 300 300 300 302 304 306 308 309 310 310 310 311 312 314 315 316 317
270 270 270 271 273 274 275 277 277 277 278 281 283 285 288 290 291 292 293 293 293 294 296 297 298 299 300 300 301 303 304 306 308 308 308 308 308 309 311 313 315 316 316
Height
5860 5860 5860 5860 5860 5860 5860 5861 5862 5862 5863 5863 5864 5865 5866 5867 5868 5869 5869 5870 5870 5870 5870 5870 5870 5870 5870 5870 5870 5870 5870 5869 5869 5869 5868 5868 5867 5866 5865 5864 5863 5862 5861
5859 5858 5858 5858 5858 5859 5859 5859 5859 5859 5860 5860 5860 5861 5862 5863 5863 5864 5864 5864 5865 5865 5865 5865 5864 5864 5864 5864 5864 5863 5863 5863 5863 5862 5862 5861 5860 5859 5858 5857 5856 5855 5854
5857 5857 5857 5856 5857 5857 5857 5856 5857 5857 5856 5856 5857 5858 5858 5858 5859 5859 5859 5859 5859 5859 5859 5858 5858 5858 5858 5858 5858 5857 5857 5856 5856 5856 5855 5854 5853 5852 5851 5850 5848 5847 5845
5856 5855 5855 5855 5855 5855 5854 5854 5854 5854 5853 5853 5854 5854 5853 5853 5853 5853 5854 5854 5854 5853 5853 5852 5852 5852 5852 5851 5851 5851 5850 5850 5849 5848 5848 5847 5845 5844 5843 5842 5840 5838 5836
5855 5854 5853 5853 5853 5852 5852 5852 5851 5851 5850 5850 5850 5849 5849 5849 5848 5848 5848 5848 5848 5848 5847 5847 5846 5846 5845 5845 5845 5844 5843 5843 5842 5841 5840 5839 5837 5836 5835 5833 5831 5829 5827
5854 5853 5852 5851 5850 5850 5849 5849 5848 5848 5847 5846 5846 5845 5845 5844 5844 5843 5843 5843 5842 5842 5841 5840 5840 5839 5839 5838 5837 5837 5836 5835 5834 5833 5832 5831 5829 5828 5826 5824 5822 5820 5817
5851 5850 5849 5849 5848 5847 5846 5846 5845 5844 5843 5843 5842 5841 5840 5839 5839 5838 5838 5837 5836 5836 5835 5835 5834 5833 5832 5831 5830 5829 5829 5828 5827 5826 5824 5823 5821 5819 5817 5815 5813 5810 5807
5848 5847 5846 5846 5845 5844 5843 5842 5841 5840 5839 5838 5838 5837 5836 5835 5834 5833 5832 5831 5831 5830 5830 5829 5828 5827 5826 5825 5824 5822 5822 5821 5819 5818 5816 5814 5812 5810 5808 5805 5802 5800 5796
5845 5844 5843 5842 5841 5840 5839 5838 5837 5836 5835 5834 5833 5832 5831 5830 5829 5828 5827 5826 5825 5824 5823 5823 5821 5820 5819 5818 5817 5815 5814 5812 5811 5809 5807 5805 5802 5800 5797 5795 5792 5789 5785
5840 5840 5839 5838 5837 5836 5835 5834 5832 5832 5830 5829 5828 5827 5826 5825 5824 5823 5822 5821 5820 5818 5817 5816 5815 5813 5811 5810 5808 5807 5805 5803 5802 5800 5798 5795 5792 5790 5787 5784 5781 5777 5773
5836 5835 5834 5833 5832 5831 5829 5828 5827 5826 5825 5824 5823 5822 5820 5819 5818 5817 5816 5815 5814 5812 5811 5809 5808 5806 5804 5803 5801 5799 5797 5795 5793 5790 5788 5785 5783 5779 5776 5773 5769 5765 5761
5831 5829 5828 5827 5826 5825 5824 5822 5821 5820 5819 5818 5817 5816 5814 5813 5812 5810 5809 5808 5807 5806 5805 5803 5801 5799 5797 5795 5793 5791 5789 5787 5784 5781 5779 5776 5773 5769 5766 5762 5758 5753 5749
5825 5823 5822 5821 5820 5819 5817 5816 5815 5814 5813 5812 5810 5809 5808 5807 5805 5804 5803 5802 5800 5799 5797 5796 5794 5792 5790 5788 5786 5783 5781 5779 5776 5773 5770 5767 5763 5760 5756 5752 5747 5743 5738
5818 5817 5816 5814 5813 5812 5811 5809 5808 5807 5806 5805 5804 5803 5802 5800 5799 5797 5796 5795 5793 5792 5790 5788 5787 5785 5783 5780 5778 5775 5773 5770 5767 5763 5760 5757 5754 5750 5746 5742 5738 5733 5728
5811 5810 5809 5807 5806 5804 5803 5802 5801 5800 5799 5798 5797 5796 5795 5793 5792 5791 5789 5788 5786 5785 5783 5781 5779 5777 5775 5772 5769 5767 5764 5761 5758 5754 5751 5748 5744 5740 5736 5732 5728 5723 5718
5804 5802 5801 5800 5798 5797 5796 5795 5794 5793 5792 5790 5789 5788 5787 5786 5785 5783 5782 5780 5779 5777 5775 5773 5771 5768 5766 5764 5761 5758 5755 5752 5749 5746 5742 5739 5735 5731 5727 5722 5718 5713 5709
5796 5794 5793 5792 5791 5790 5788 5787 5786 5785 5784 5783 5782 5780 5779 5778 5777 5776 5774 5773 5771 5769 5767 5765 5762 5760 5758 5755 5752 5749 5747 5743 5740 5737 5733 5730 5726 5722 5718 5713 5709 5704 5699
5787 5786 5785 5784 5783 5782 5781 5779 5778 5777 5776 5775 5774 5773 5772 5771 5770 5768 5767 5765 5763 5761 5759 5757 5754 5752 5749 5747 5744 5741 5738 5735 5731 5728 5724 5721 5717 5713 5709 5704 5700 5696 5691
5779 5778 5777 5775 5774 5773 5772 5771 5770 5769 5768 5767 5766 5765 5764 5763 5762 5760 5758 5757 5754 5752 5750 5748 5746 5744 5741 5738 5735 5732 5729 5726 5723 5719 5716 5712 5708 5704 5700 5696 5692 5688 5684
5770 5769 5768 5767 5766 5765 5764 5763 5762 5761 5760 5759 5758 5757 5756 5755 5754 5752 5750 5748 5746 5744 5742 5740 5738 5735 5733 5730 5727 5724 5721 5718 5714 5711 5708 5704 5700 5697 5693 5689 5685 5681 5677
5761 5760 5759 5759 5758 5757 5756 5755 5754 5753 5752 5752 5751 5750 5749 5747 5746 5744 5742 5740 5738 5736 5734 5732 5729 5727 5724 5722 5719 5716 5713 5710 5707 5703 5700 5697 5693 5689 5686 5682 5678 5675 5671
5752 5752 5751 5751 5750 5749 5748 5748 5747 5746 5745 5744 5743 5742 5741 5739 5738 5736 5734 5732 5730 5728 5726 5724 5722 5719 5716 5714 5711 5709 5706 5703 5699 5696 5693 5690 5686 5683 5679 5676 5672 5669 5665
5744 5743 5743 5742 5742 5741 5741 5740 5739 5738 5737 5736 5735 5734 5733 5732 5730 5729 5727 5725 5722 5720 5718 5716 5714 5711 5709 5706 5704 5701 5699 5696 5693 5690 5686 5683 5680 5677 5673 5670 5667 5663 5660
5736 5735 5735 5735 5734 5733 5733 5732 5731 5731 5730 5729 5728 5727 5725 5724 5722 5721 5719 5717 5715 5713 5711 5709 5706 5704 5702 5699 5697 5694 5692 5689 5686 5683 5680 5677 5674 5671 5668 5664 5661 5658 5655
5728 5728 5727 5727 5727 5726 5725 5724 5724 5723 5722 5721 5720 5719 5718 5716 5715 5713 5711 5709 5708 5706 5704 5702 5699 5697 5695 5693 5690 5687 5685 5682 5679 5676 5673 5670 5668 5665 5662 5659 5656 5652 5649
5721 5721 5720 5720 5719 5719 5718 5717 5716 5715 5715 5714 5713 5712 5710 5709 5707 5706 5704 5702 5700 5698 5696 5694 5692 5690 5688 5685 5683 5680 5678 5675 5673 5670 5667 5664 5662 5659 5656 5653 5650 5647 5644